Location: Madrid
(40.4000°N, 3.6830°W)
Time: 06:52:39
(UTC+01:00)

ISS - Pass Details

Date: 24 November 2020
Orbit: 418 x 420 km, 51.6° (Epoch: 04 December)

Event Time Altitude Azimuth Distance (km) Brightness Sun altitude
Rises 19:41:24 0° 276° (W) 2,358 1.4 -20.6°
Reaches altitude 10° 19:43:58 10° 296° (WNW) 1,496 -0.2 -21.1°
Maximum altitude 19:46:22 18° 342° (NNW) 1,107 -1.6 -21.6°
Enters shadow 19:46:23 18° 342° (NNW) 1,107 -1.6 -21.6°
